Aérodrome :
LOGIN :

S'inscrire | Disclaimer

   EN    FR    IT 

 










Légende :    VFR   VFR Marginal   IFR   IFR Intensif   IFR Très Intensif
Visi : 
Plafond : 
>= 8 km
>= 3000ft
5 à 8 km
1000 à 3000 ft
1500m à 5 km
500 à 1000 ft
800 à 1500m
200 à 500 ft
< 800m
< 200 ft
Symboles :   Orages  Brouillard  Fortes neiges  Fortes précipitations  Vent > 20 kt
SIGMETs :   Divers  Orages  Givrage  Turbulence  Onde Orograph.  Cendres Volcan.







- Altitude de l'aérodrome : 257 ft
- Code IATA : MAN
- Voir les cartes d'approche


EGCC - Manchester

DERNIER METAR :
  • 240820Z AUTO 30004KT 230V010 9999 NCD 16/09 Q1027 NOSIG

METARs EXPIRÉS :
  • 240750Z AUTO VRB01KT 9999 NCD 15/09 Q1027 NOSIG
  • 240720Z AUTO VRB02KT 9999 NCD 14/09 Q1027 NOSIG
  • 240650Z AUTO VRB01KT 9999 NCD 13/09 Q1027 NOSIG
  • 240620Z AUTO VRB01KT 9999 NCD 12/09 Q1027 NOSIG
  • 240550Z AUTO VRB01KT 9999 NCD 10/08 Q1027

TAF TAF EGCC
Valide du 24 à 06h jusqu'au 25 à 12h UTC


240502Z 2406/2512 31005KT CAVOK
PROB30 2406/2407 6000
PROB30 2502/2507 6000
ATIS : +44 161 499 2324
Pas de NOTAMs connus pour ce terrain.



MET'MAP, la Météo Aéronautique d'un coup d'oeil ! - Copyright ORBIFLY Décembre 2007 - Disclaimer

ORBIFLY MET'MAP TEAM :

Programmation & Développement : Alexandra Zaïnal
Conception & Développement : Baudouin d'Aumeries
Co-Programmation & Développement : Marc-Olivier Méhu
Soutien technique & logistique : Manuel Goepfert

Contact : metmap@orbifly.com




SOURCES & CREDITS :

   NOAA